Theta_e
323 322 321 321 320 319 317 314 310 309 309 308 306 308 308 306 305 304 304 308 303 305 303 299 300 302 304 309 309 310 307 307 308 310 311 316 318 319 320 318 322 323 323 325 325 325 324
324 324 323 322 321 321 319 316 310 310 309 308 306 308 307 305 304 304 303 306 307 301 305 299 299 304 308 308 308 308 308 308 311 309 310 313 317 318 318 319 321 318 320 322 323 324 325
324 323 324 323 322 322 320 317 313 308 308 308 306 306 305 305 304 304 303 305 306 302 302 299 299 304 307 307 307 307 307 307 308 310 310 313 314 316 317 318 320 318 319 320 323 323 323
323 323 324 324 323 322 321 318 314 308 308 308 306 304 305 305 304 304 303 305 304 303 300 299 300 305 306 306 305 307 307 307 307 309 309 311 312 315 318 318 318 317 317 319 322 323 322
323 323 322 324 324 324 322 319 312 308 307 307 305 304 304 304 304 303 302 304 303 301 300 299 304 306 306 306 306 305 306 308 308 309 308 308 310 317 317 319 320 319 317 316 322 322 321
321 321 321 323 324 323 323 320 314 307 305 303 304 305 304 303 303 303 302 303 302 301 304 304 305 305 306 306 307 306 307 308 308 310 308 308 312 317 317 318 321 321 320 318 320 322 320
322 320 321 322 323 323 323 320 312 307 305 302 306 305 303 303 303 303 302 306 308 307 305 305 304 304 305 306 307 307 308 309 309 310 307 307 313 316 316 317 317 318 318 319 318 321 321
321 320 320 322 323 323 323 321 315 306 303 301 304 303 303 303 302 302 304 307 306 306 306 305 305 304 305 307 308 308 308 307 309 311 308 308 314 314 316 317 316 316 317 320 321 322 321
319 321 320 322 324 323 322 320 313 306 302 301 302 303 302 301 301 303 305 306 304 304 308 307 306 307 307 308 308 309 308 306 309 310 310 313 315 315 316 316 317 316 315 321 323 323 322
319 321 320 322 322 324 321 319 310 305 301 301 300 301 300 302 305 306 306 305 303 303 310 308 308 308 308 308 309 308 308 306 311 311 313 313 312 315 317 317 316 316 315 320 322 322 323
319 320 320 322 324 324 321 318 309 303 301 300 299 299 300 303 305 306 306 303 303 306 314 307 307 305 308 309 308 309 308 310 312 312 312 313 313 314 318 316 315 317 317 319 322 320 319
323 320 320 322 324 323 322 317 308 302 301 298 301 303 304 303 305 306 303 303 306 309 310 308 307 308 309 309 309 310 310 310 312 312 313 314 313 315 317 315 316 315 316 316 315 316 315
322 320 320 322 325 324 321 314 307 301 301 299 306 307 306 305 306 304 303 307 311 312 307 307 307 308 310 309 310 311 311 312 314 311 314 312 313 314 315 316 316 315 316 316 317 314 316
319 322 320 321 325 324 321 312 304 301 300 302 307 306 305 306 305 303 306 309 314 309 310 308 308 309 310 310 310 312 310 312 312 312 314 317 315 315 316 316 317 316 316 317 317 315 316
314 322 320 320 323 323 321 312 303 301 299 306 306 306 307 305 305 306 308 313 313 311 308 308 309 310 311 310 310 312 312 313 313 314 315 317 316 314 315 315 315 316 315 313 316 314 314
314 319 320 320 321 323 320 310 302 301 299 307 307 307 307 305 306 307 310 313 311 310 310 308 310 309 311 310 311 313 314 313 313 314 313 314 318 315 315 315 314 315 313 314 314 314 314
314 318 321 319 320 321 320 308 301 301 300 307 307 309 307 306 307 309 312 312 311 310 309 311 312 310 310 310 311 312 314 312 313 314 313 315 315 316 315 317 316 315 316 316 316 314 318
310 316 321 319 320 320 318 306 301 301 302 307 308 310 307 306 309 311 312 312 311 311 311 311 311 312 311 310 311 312 314 314 313 313 314 314 314 315 317 315 315 315 315 314 314 315 313
307 312 319 319 320 319 316 303 301 301 302 308 308 307 307 307 312 311 312 312 312 311 312 312 312 311 312 311 312 312 313 313 313 314 314 314 314 313 314 314 314 316 315 315 315 314 315
307 313 317 319 320 318 314 303 301 301 304 309 308 307 307 307 308 310 312 312 312 311 311 311 312 312 313 312 313 313 313 313 313 313 311 311 314 314 314 315 313 314 314 314 314 312 314
307 311 319 319 320 318 311 301 301 301 304 309 309 310 307 308 309 311 313 312 312 312 312 311 312 312 312 313 312 311 312 313 313 311 312 313 315 310 312 314 314 315 313 313 312 313 313
303 309 320 319 319 316 308 301 300 300 304 308 308 309 308 310 310 311 311 313 313 313 313 312 312 312 311 312 312 312 312 312 313 313 313 312 312 311 309 311 312 313 313 314 315 315 314
302 304 317 320 319 315 307 300 300 300 299 306 307 307 309 310 311 312 312 312 313 312 312 312 312 313 313 312 309 311 311 311 312 312 313 313 309 309 311 309 309 309 310 312 313 313 313
302 309 316 319 318 313 302 301 300 300 299 304 304 306 308 308 310 311 311 311 312 312 312 310 311 312 309 308 308 309 310 310 310 311 312 313 312 308 308 308 308 307 307 308 309 310 309
302 304 312 315 315 310 303 301 301 300 300 302 301 307 307 309 308 309 310 310 310 311 310 308 306 307 308 310 310 311 311 310 310 309 309 310 311 310 311 308 309 309 309 309 310 310 307
302 304 307 315 314 306 302 301 300 300 300 301 300 305 306 307 304 307 309 310 310 310 309 306 306 308 309 311 312 313 313 312 311 310 308 309 308 309 308 309 310 308 308 308 308 310 304
302 308 308 312 311 301 301 300 300 300 299 299 300 304 305 300 299 302 305 307 307 308 309 306 306 309 310 311 312 311 310 309 311 311 310 309 309 309 309 309 309 304 306 308 310 306 304
301 308 309 311 306 302 301 300 300 299 299 299 301 303 303 299 298 299 300 301 303 303 307 303 306 307 310 312 311 310 310 308 309 310 310 310 308 309 309 311 308 303 307 308 303 302 301
301 304 308 308 304 303 300 300 299 298 299 300 301 302 302 301 297 297 298 299 300 300 302 304 306 306 306 309 308 308 308 308 308 309 307 308 306 307 308 308 304 303 303 302 301 301 301
Wind_Speed
23 21 22 23 26 23 23 23 22 20 19 20 18 19 20 23 24 22 15 13 14 10 14 11 8 11 2 5 5 4 5 5 8 11 16 9 14 17 15 16 9 5 3 12 11 16 9
30 30 29 26 26 25 23 24 22 19 17 20 18 18 21 23 22 21 14 11 13 11 13 10 7 4 6 7 3 3 5 5 4 11 25 10 7 17 15 18 10 9 3 1 12 17 10
27 28 30 34 30 29 24 23 22 20 18 20 20 20 22 20 20 20 14 11 11 12 11 9 6 5 8 8 3 6 6 6 6 11 18 13 11 7 9 10 23 9 6 6 11 14 5
27 28 31 33 33 34 29 22 22 19 18 20 21 20 18 18 18 20 18 12 12 10 8 7 4 4 7 6 5 4 5 5 7 7 18 23 12 9 6 13 13 6 4 2 7 12 10
28 28 30 31 36 36 33 23 21 18 20 19 22 18 18 18 17 19 18 10 8 7 6 5 5 5 5 5 4 16 10 6 7 6 8 15 9 8 12 11 6 7 6 8 11 17 9
28 29 30 31 36 30 35 23 21 18 22 22 16 17 18 17 16 16 14 4 4 4 6 4 7 5 5 6 11 2 0 7 9 10 6 6 9 3 4 8 13 9 8 9 6 9 14
29 29 30 30 22 26 32 23 21 22 23 20 16 18 16 15 14 16 4 4 4 1 3 4 4 6 4 6 7 5 5 4 10 14 4 2 4 8 15 14 12 14 15 18 15 15 11
31 29 28 29 24 26 27 22 22 20 22 20 18 15 14 15 13 11 2 1 3 1 2 1 4 5 5 3 2 5 3 4 2 6 10 3 4 13 22 17 16 10 14 13 13 13 9
31 29 28 28 25 28 21 20 20 19 21 20 16 13 14 12 11 1 6 3 5 1 3 1 2 5 3 4 2 2 1 4 2 7 8 3 5 5 7 10 9 13 19 14 14 10 4
33 30 28 29 28 25 19 18 18 18 19 18 15 12 9 7 3 3 1 6 3 1 0 2 1 2 2 4 3 3 5 3 3 9 10 4 7 3 7 18 10 6 8 15 16 8 4
35 31 29 28 29 21 19 15 15 17 17 15 13 10 6 4 4 0 5 3 0 1 1 4 3 4 3 3 1 3 3 2 8 9 3 3 2 2 7 8 6 4 13 6 12 8 5
31 33 30 27 22 22 18 14 13 14 13 11 7 4 1 8 4 3 3 4 1 2 3 4 3 2 2 8 3 3 3 1 11 8 10 4 2 1 5 6 5 3 8 9 6 3 2
33 33 31 27 21 28 17 11 12 11 9 5 2 3 6 7 3 3 6 2 2 2 2 0 1 1 6 5 5 5 5 3 1 5 3 3 4 4 4 5 2 4 7 3 3 2 3
41 30 32 30 25 28 17 10 10 7 5 3 7 9 7 5 6 6 2 2 1 3 2 3 2 2 3 2 2 6 3 2 4 5 3 2 3 2 2 1 4 4 5 3 4 4 3
36 30 34 30 30 25 18 11 9 5 3 10 10 7 2 6 7 5 3 2 2 2 3 6 4 2 3 3 2 4 1 2 3 6 3 3 3 4 5 4 3 4 3 3 2 3 5
35 35 35 31 30 28 20 11 9 6 6 15 10 6 4 5 4 2 3 2 2 2 3 5 1 3 3 4 5 3 2 3 3 3 3 4 4 4 4 4 2 2 6 1 3 2 2
29 34 36 32 29 32 21 12 11 8 11 18 13 4 3 5 5 3 1 3 4 4 3 2 2 1 7 4 3 2 5 3 2 3 5 1 5 4 4 1 4 0 2 2 1 3 0
29 26 37 34 27 31 20 16 14 13 18 20 8 2 3 7 2 5 2 3 2 8 3 2 2 3 4 3 3 3 5 3 6 4 2 4 3 4 2 3 3 5 4 4 3 4 1
35 33 39 34 24 30 21 18 17 16 22 23 10 4 5 7 2 3 3 5 1 7 8 7 4 3 4 3 2 4 5 3 4 3 4 0 3 3 2 2 4 4 5 3 2 3 2
32 30 39 33 25 31 22 20 20 18 26 18 9 4 4 5 5 5 6 5 5 1 4 1 8 6 3 3 3 4 7 3 4 4 3 3 2 2 2 1 6 5 6 6 3 2 4
24 20 38 28 23 32 24 24 22 21 28 17 10 6 8 4 6 8 2 7 8 4 2 4 4 2 0 3 5 4 3 5 2 2 2 4 3 3 5 6 6 3 6 8 6 7 2
35 17 35 26 24 32 26 25 23 24 32 19 7 4 8 7 13 10 4 5 7 6 3 3 2 4 2 7 3 6 6 4 1 2 1 2 1 3 1 1 1 1 5 4 10 12 12
32 23 30 28 24 31 26 27 26 27 34 15 12 11 8 8 7 8 6 6 7 7 4 8 3 8 9 6 7 10 5 6 3 3 2 1 3 1 1 2 3 3 2 8 4 1 1
37 14 30 26 29 31 26 26 26 27 34 13 21 15 5 4 7 5 7 8 8 1 5 5 7 5 2 7 4 4 7 7 8 5 3 3 2 3 1 3 1 3 3 2 4 6 7
30 12 33 30 35 30 27 27 26 27 34 20 22 15 5 5 7 7 9 8 10 9 9 8 6 4 7 3 4 5 3 3 4 4 1 2 4 2 2 4 4 3 2 1 0 3 6
30 29 36 35 36 30 29 25 24 26 32 26 19 15 5 10 2 10 9 13 6 4 4 3 4 5 3 2 1 1 2 3 5 5 1 3 2 1 2 2 2 4 4 3 2 4 6
33 23 48 40 34 30 25 23 23 24 27 27 22 17 11 9 2 5 3 2 3 2 3 5 1 2 2 1 1 0 2 4 3 4 3 2 1 2 3 2 2 3 5 2 3 1 2
13 22 42 36 33 28 24 22 22 23 25 25 26 19 15 9 9 6 8 5 2 2 2 4 3 0 1 1 1 1 2 1 2 2 1 4 3 3 3 3 3 7 0 1 3 7 12
31 18 41 35 32 29 25 22 23 23 24 23 28 21 15 12 10 12 12 9 8 6 6 3 3 4 3 2 1 1 1 1 2 2 2 1 2 1 4 2 5 7 6 7 12 13 16
Wind_Direction
317 314 319 323 320 323 323 330 328 326 326 326 328 319 319 320 320 320 283 311 311 305 312 313 321 330 317 254 277 308 309 302 242 216 220 217 216 207 203 182 171 229 260 126 152 159 233
316 315 305 309 314 312 316 328 326 317 323 320 322 315 314 318 321 318 304 277 309 290 301 305 320 346 325 287 337 305 307 308 297 210 207 236 223 211 207 184 183 177 40 63 149 127 158
307 310 311 300 300 304 307 326 327 317 320 320 322 309 310 315 318 315 307 277 291 293 292 295 309 332 297 268 310 297 305 280 286 208 220 225 298 316 218 200 187 166 202 267 202 190 131
305 309 308 307 293 295 300 319 323 316 317 322 317 316 311 310 317 311 312 277 274 288 295 293 310 327 273 226 272 297 275 274 275 219 210 225 293 299 240 170 121 121 63 312 232 173 168
302 305 310 311 292 296 295 314 322 312 324 318 315 319 311 313 312 307 311 284 280 274 307 288 323 275 286 304 282 309 239 256 236 230 237 238 292 227 234 173 140 165 163 237 256 194 198
298 302 305 308 302 296 291 308 321 316 323 322 322 314 314 315 319 308 314 316 297 283 335 299 269 277 289 337 334 113 243 256 232 186 155 226 256 151 247 180 187 161 134 196 259 215 203
295 300 302 305 300 296 290 308 320 324 322 322 315 304 307 309 311 305 309 49 339 270 227 310 319 295 321 341 353 357 330 313 203 163 129 332 356 204 214 206 185 163 158 168 213 223 189
291 297 299 298 297 300 288 303 319 320 320 321 309 313 303 304 296 297 270 117 347 274 267 269 290 287 282 302 291 348 20 55 353 128 122 128 227 205 215 197 210 204 194 177 152 185 172
285 290 294 290 293 296 294 295 312 319 319 319 312 301 303 305 308 316 151 295 240 38 258 164 289 298 294 329 64 342 65 144 225 162 156 150 130 352 277 174 197 188 211 164 157 144 142
282 283 287 289 294 291 290 292 307 318 321 316 309 308 304 320 24 52 244 239 192 48 178 335 284 302 320 297 14 5 70 164 141 175 117 50 7 12 281 189 208 176 172 147 134 133 178
273 277 281 284 295 277 283 290 305 316 321 314 316 310 292 182 125 8 224 213 137 30 265 321 334 288 304 345 201 20 30 294 105 102 80 32 90 309 256 158 231 70 107 173 149 189 117
263 271 274 278 286 280 273 283 301 312 318 316 324 317 182 153 143 226 196 141 70 239 78 300 288 314 284 40 47 12 39 38 113 69 62 68 86 260 306 62 56 80 81 62 38 27 8
271 260 264 269 268 262 256 273 292 306 312 323 87 85 113 123 132 169 129 103 248 346 229 281 245 251 75 20 31 17 22 14 128 101 70 33 355 330 284 76 68 157 116 69 46 22 219
263 253 255 263 260 259 250 259 277 293 302 170 136 112 112 162 153 138 103 234 333 95 159 205 157 240 64 133 24 52 45 325 323 98 82 107 126 296 247 7 161 203 175 142 164 172 170
279 250 249 254 257 256 241 243 257 258 239 165 154 121 139 135 131 129 279 243 73 126 178 149 179 128 121 136 146 119 203 280 53 2 87 96 75 238 258 360 8 244 12 19 15 253 98
280 253 244 250 260 243 230 222 233 218 192 167 151 128 167 150 130 133 263 55 91 149 267 172 15 296 132 153 169 170 112 255 105 17 303 135 98 308 61 336 342 295 132 126 337 111 169
287 257 240 246 254 238 221 208 213 193 178 166 142 177 213 152 121 240 275 81 107 146 314 40 2 101 141 159 164 117 123 149 108 144 302 318 114 116 80 299 169 108 25 274 84 76 4
288 279 236 242 248 237 208 203 199 182 171 165 160 173 189 137 238 237 191 160 103 147 152 116 271 324 330 123 47 63 97 81 135 163 112 82 100 115 134 287 291 301 217 220 115 268 338
308 280 237 238 242 231 202 194 196 182 180 158 162 124 163 154 215 218 142 147 279 157 176 178 156 280 331 56 79 110 86 55 61 48 22 33 111 100 106 246 192 242 212 270 16 67 196
318 267 222 231 238 214 194 194 190 178 173 155 153 149 149 202 256 262 175 162 134 99 122 139 114 170 193 108 5 134 122 154 133 90 345 306 178 91 137 251 152 184 212 204 154 96 210
315 298 214 225 236 207 187 190 184 178 175 162 185 173 177 175 224 237 261 171 146 147 147 214 144 252 285 122 115 123 111 135 130 139 271 343 106 77 69 24 42 1 210 216 176 213 208
320 265 217 218 235 206 179 189 184 179 180 181 183 164 175 164 180 207 195 209 143 119 349 146 108 137 28 69 80 156 152 161 105 178 269 79 33 76 276 117 77 259 305 252 214 211 218
305 316 224 220 237 201 182 188 184 184 185 184 205 167 173 144 172 197 180 160 123 130 41 37 37 103 90 75 37 54 71 114 52 142 195 13 116 89 139 13 318 299 249 225 216 278 348
290 277 221 213 237 191 179 192 186 188 188 177 189 168 185 168 197 171 134 134 139 11 118 69 22 89 146 121 105 122 95 99 89 57 88 150 91 106 250 352 313 145 51 38 48 57 39
295 335 225 224 203 180 183 193 187 185 188 190 175 167 197 142 125 132 144 118 125 101 86 72 57 98 144 185 152 141 152 160 77 27 89 100 158 176 159 208 139 135 127 107 198 81 45
294 282 218 242 200 176 187 190 186 186 193 199 182 171 141 123 43 156 136 165 151 126 140 93 55 127 115 263 154 176 160 124 157 146 22 320 330 145 181 294 300 103 58 349 312 178 45
309 220 203 214 191 177 186 188 186 187 190 198 186 166 142 101 109 96 95 96 54 102 89 115 105 93 92 263 285 333 133 5 153 172 170 177 227 220 270 301 26 31 307 274 182 180 32
311 212 211 212 175 173 182 187 184 180 182 182 176 169 157 107 86 103 110 98 84 18 139 136 125 192 204 226 84 338 61 70 3 106 139 166 171 203 182 207 265 350 87 32 40 16 0
276 236 203 190 170 172 177 185 179 173 175 170 166 168 156 115 120 114 111 113 124 115 114 85 71 52 75 75 67 75 177 44 5 180 350 87 77 323 35 65 101 39 28 87 28 15 352